Thermal, CA

8:25 AM PDT on October 19, 2017 (GMT -0700)
Desert Resorts Regional

Weather History for KTRM - March, 2013

Change the Weather History Date:

Monday, March 25, 2013

  Actual Average Record
Temperature  
Mean Temperature 64 °F 66 °F  
Max Temperature 87 °F 83 °F 100 °F (1988)
Min Temperature 41 °F 49 °F 39 °F (2009)
Degree Days  
Heating Degree Days 1 2  
Month to date heating degree days 34 83  
Since 1 July heating degree days 1122 1148  
Cooling Degree Days 0 3  
Month to date cooling degree days 117 44  
Year to date cooling degree days 117 56  
Growing Degree Days 14 (Base 50)    
Moisture  
Dew Point 27 °F    
Average Humidity 36    
Maximum Humidity 65    
Minimum Humidity 6    
Precipitation  
Precipitation 0.00 in 0.01 in 0.04 in (1998)
Month to date precipitation 0.07 0.35  
Year to date precipitation 0.44 1.68  
Since 1 July precipitation 2.62  
Snow  
Snow 0.00 in - - ()
Month to date snowfall 0.0  
Year to date snowfall 0.0  
Snow Depth 0.00 in    
Sea Level Pressure  
Sea Level Pressure 29.87 in    
Wind  
Wind Speed 5 mph (ENE)    
Max Wind Speed 15 mph    
Max Gust Speed 20 mph    
Visibility 10 miles    
Events      
T = Trace of Precipitation, MM = Missing Value Source: NWS Daily Summary

Daily Weather History Graph

Daily Weather History Graph

Search for Another Location

Airport or City:

Trip Planner

Search our weather history database for the weather conditions in past years. The results will help you decide how hot, cold, wet, or windy it might be!

Date:

Astronomy

Mar. 25, 2013 Rise Set
Actual Time 6:41 AM PDT 7:00 PM PDT
Civil Twilight 6:16 AM PDT 7:25 PM PDT
Nautical Twilight 5:47 AM PDT 7:54 PM PDT
Astronomical Twilight 5:17 AM PDT 8:24 PM PDT
Moon 5:38 PM PDT (3/25) 5:23 AM PDT (3/25)
Length of Visible Light 13h 08m
Length of Day
12h 19m
Waxing Gibbous, 97% of the Moon is Illuminated
Mar 25
Waxing Gibbous
Mar 27
Full
Apr 2
Last Quarter
Apr 10
New
Apr 18
First Quarter

Hourly Weather History & Observations

Time (PDT) Temp. Windchill Dew Point Humidity Pressure Visibility Wind Dir Wind Speed Gust Speed Precip Events Conditions
12:52 AM 48.9 °F - 28.9 °F 46% 29.89 in 10.0 mi Calm Calm - N/A   Clear
1:52 AM 48.9 °F - 30.9 °F 50% 29.89 in 10.0 mi Calm Calm - N/A   Clear
2:52 AM 46.9 °F - 32.0 °F 56% 29.89 in 10.0 mi Calm Calm - N/A   Clear
3:52 AM 45.0 °F 43.5 °F 30.0 °F 56% 29.88 in 10.0 mi North 3.5 mph - N/A   Clear
4:52 AM 50.0 °F - 28.9 °F 44% 29.88 in 10.0 mi North 4.6 mph - N/A   Clear
5:52 AM 45.0 °F 43.5 °F 28.0 °F 52% 29.89 in 10.0 mi NNW 3.5 mph - N/A   Clear
6:52 AM 41.0 °F 39.0 °F 30.0 °F 65% 29.90 in 10.0 mi NW 3.5 mph - N/A   Clear
7:52 AM 55.0 °F - 32.0 °F 42% 29.92 in 10.0 mi Calm Calm - N/A   Clear
8:52 AM 68.0 °F - 30.9 °F 25% 29.93 in 10.0 mi North 4.6 mph - N/A   Clear
9:52 AM 73.9 °F - 28.9 °F 19% 29.94 in 10.0 mi Calm Calm - N/A   Clear
10:52 AM 79.0 °F - 21.0 °F 12% 29.93 in 10.0 mi Calm Calm - N/A   Clear
11:52 AM 82.9 °F - 21.0 °F 10% 29.92 in 10.0 mi SE 10.4 mph - N/A   Clear
12:52 PM 84.9 °F - 21.0 °F 10% 29.90 in 10.0 mi SE 11.5 mph - N/A   Clear
1:52 PM 84.9 °F - 16.0 °F 8% 29.88 in 10.0 mi SSE 12.7 mph 19.6 mph N/A   Clear
2:52 PM 86.0 °F - 12.0 °F 6% 29.85 in 10.0 mi ESE 9.2 mph 19.6 mph N/A   Clear
3:52 PM 84.9 °F - 15.1 °F 7% 29.83 in 10.0 mi SSE 9.2 mph - N/A   Clear
4:52 PM 84.0 °F - 19.0 °F 9% 29.81 in 10.0 mi SE 8.1 mph - N/A   Clear
5:52 PM 81.0 °F - 21.0 °F 11% 29.81 in 10.0 mi SSE 4.6 mph - N/A   Clear
6:52 PM 77.0 °F - 28.9 °F 17% 29.81 in 10.0 mi South 4.6 mph - N/A   Clear
7:52 PM 68.0 °F - 30.9 °F 25% 29.81 in 10.0 mi Calm Calm - N/A   Clear
8:52 PM 64.9 °F - 32.0 °F 29% 29.82 in 10.0 mi Calm Calm - N/A   Clear
9:52 PM 61.0 °F - 34.0 °F 36% 29.84 in 10.0 mi NNW 4.6 mph - N/A   Clear
10:52 PM 61.0 °F - 35.1 °F 38% 29.85 in 10.0 mi NNW 3.5 mph - N/A   Clear
11:52 PM 61.0 °F - 33.1 °F 35% 29.85 in 10.0 mi NNE 3.5 mph - N/A   Clear